| time (UTC) | temp F | wind direction | speed MPH | gust MPH | rain 1hr in | rain 24hr in | rain mn in | humidity % | barometer mb |
| 20260502203101 | 66 | 163 | 1.0 | 8.0 | 0.00 | 0.00 | 0.00 | 31 | 1020.5 |
| 20260502202545 | 65 | 275 | 1.0 | 5.0 | 0.00 | 0.00 | 0.00 | 29 | 1020.6 |
| 20260502202043 | 66 | 344 | 1.0 | 7.0 | 0.00 | 0.00 | 0.00 | 30 | 1020.6 |
| 20260502201551 | 66 | 196 | 3.0 | 7.0 | 0.00 | 0.00 | 0.00 | 28 | 1020.7 |
| 20260502201044 | 65 | 207 | 0.0 | 9.0 | 0.00 | 0.00 | 0.00 | 31 | 1020.7 |
| 20260502200543 | 65 | 61 | 1.0 | 9.0 | 0.00 | 0.00 | 0.00 | 29 | 1020.7 |
| 20260502200053 | 67 | 355 | 1.0 | 5.0 | 0.00 | 0.00 | 0.00 | 27 | 1020.7 |
| 20260502195543 | 66 | 265 | 1.0 | 5.0 | 0.00 | 0.00 | 0.00 | 28 | 1020.7 |
| 20260502195039 | 63 | 150 | 0.0 | 4.0 | 0.00 | 0.00 | 0.00 | 34 | 1020.9 |
| 20260502194554 | 64 | 44 | 2.0 | 5.0 | 0.00 | 0.00 | 0.00 | 30 | 1021.1 |
| 20260502194043 | 64 | 0 | 0.0 | 9.0 | 0.00 | 0.00 | 0.00 | 29 | 1021.0 |
| 20260502193543 | 66 | 42 | 2.0 | 9.0 | 0.00 | 0.00 | 0.00 | 27 | 1021.0 |
| 20260502193057 | 66 | 320 | 2.0 | 9.0 | 0.00 | 0.00 | 0.00 | 29 | 1021.1 |
| 20260502192545 | 65 | 325 | 2.0 | 8.0 | 0.00 | 0.00 | 0.00 | 29 | 1021.0 |
| 20260502192043 | 65 | 260 | 1.0 | 8.0 | 0.00 | 0.00 | 0.00 | 33 | 1021.1 |
| 20260502191600 | 63 | 0 | 2.0 | 8.0 | 0.00 | 0.00 | 0.00 | 34 | 1021.3 |
| 20260502191047 | 63 | 0 | 0.0 | 4.0 | 0.00 | 0.00 | 0.00 | 32 | 1021.4 |
| 20260502190544 | 62 | 22 | 1.0 | 4.0 | 0.00 | 0.00 | 0.00 | 33 | 1021.4 |
| 20260502190104 | 63 | 28 | 0.0 | 6.0 | 0.00 | 0.00 | 0.00 | 31 | 1021.5 |
| 20260502185543 | 65 | 5 | 2.0 | 6.0 | 0.00 | 0.00 | 0.00 | 33 | 1021.6 |
| 20260502185043 | 63 | 26 | 1.0 | 6.0 | 0.00 | 0.00 | 0.00 | 30 | 1021.6 |
| 20260502184550 | 64 | 0 | 0.0 | 3.0 | 0.00 | 0.00 | 0.00 | 38 | 1021.6 |
| 20260502184043 | 62 | 38 | 1.0 | 3.0 | 0.00 | 0.00 | 0.00 | 31 | 1021.6 |
| 20260502183543 | 62 | 0 | 0.0 | 4.0 | 0.00 | 0.00 | 0.00 | 32 | 1021.7 |
| 20260502183058 | 61 | 126 | 1.0 | 4.0 | 0.00 | 0.00 | 0.00 | 37 | 1021.7 |
| 20260502182544 | 62 | 5 | 1.0 | 5.0 | 0.00 | 0.00 | 0.00 | 39 | 1021.9 |
| 20260502182043 | 62 | 19 | 1.0 | 5.0 | 0.00 | 0.00 | 0.00 | 35 | 1021.9 |
| 20260502181553 | 62 | 349 | 1.0 | 5.0 | 0.00 | 0.00 | 0.00 | 33 | 1021.9 |
| 20260502181044 | 62 | 5 | 0.0 | 4.0 | 0.00 | 0.00 | 0.00 | 36 | 1022.1 |
| 20260502180540 | 62 | 360 | 0.0 | 6.0 | 0.00 | 0.00 | 0.00 | 39 | 1022.1 |
| 20260502164041 | 59 | 55 | 1.0 | 3.0 | 0.00 | 0.00 | 0.00 | 37 | 1023.1 |
| 20260502163541 | 58 | 0 | 0.0 | 3.0 | 0.00 | 0.00 | 0.00 | 35 | 1023.1 |
| 20260502163107 | 58 | 0 | 0.0 | 3.0 | 0.00 | 0.00 | 0.00 | 34 | 1023.1 |
| 20260502162545 | 58 | 0 | 0.0 | 10.0 | 0.00 | 0.00 | 0.00 | 36 | 1023.1 |
| 20260502162040 | 58 | 0 | 0.0 | 10.0 | 0.00 | 0.00 | 0.00 | 37 | 1023.1 |
| 20260502161549 | 59 | 16 | 2.0 | 10.0 | 0.00 | 0.00 | 0.00 | 39 | 1023.1 |
| 20260502161041 | 57 | 320 | 0.0 | 4.0 | 0.00 | 0.00 | 0.00 | 37 | 1022.9 |
| 20260502160543 | 58 | 0 | 0.0 | 4.0 | 0.00 | 0.00 | 0.00 | 37 | 1023.0 |
| 20260502152039 | 56 | 336 | 0.0 | 7.0 | 0.00 | 0.00 | 0.00 | 40 | 1022.7 |
| 20260502151559 | 55 | 17 | 0.0 | 7.0 | 0.00 | 0.00 | 0.00 | 45 | 1022.8 |
| 20260502151044 | 55 | 0 | 0.0 | 3.0 | 0.00 | 0.00 | 0.00 | 39 | 1022.9 |
| 20260502150544 | 55 | 355 | 0.0 | 3.0 | 0.00 | 0.00 | 0.00 | 41 | 1022.8 |
| 20260502130543 | 43 | 0 | 0.0 | 0.0 | 0.00 | 0.00 | 0.00 | 69 | 1022.5 |
| 20260502130105 | 42 | 0 | 0.0 | 0.0 | 0.00 | 0.00 | 0.00 | 74 | 1022.5 |
| 20260502123542 | 40 | 263 | 0.0 | 3.0 | 0.00 | 0.00 | 0.00 | 76 | 1022.3 |
| 20260502123058 | 39 | 0 | 0.0 | 3.0 | 0.00 | 0.00 | 0.00 | 77 | 1022.2 |
| 20260502122542 | 39 | 0 | 0.0 | 2.0 | 0.00 | 0.00 | 0.00 | 77 | 1022.1 |
| 20260502122043 | 38 | 0 | 0.0 | 2.0 | 0.00 | 0.00 | 0.00 | 77 | 1022.1 |
| 20260502121551 | 38 | 0 | 0.0 | 2.0 | 0.00 | 0.00 | 0.00 | 78 | 1022.1 |
| 20260502121043 | 38 | 0 | 0.0 | 1.0 | 0.00 | 0.00 | 0.00 | 79 | 1022.0 |
| 20260502120543 | 37 | 293 | 0.0 | 1.0 | 0.00 | 0.00 | 0.00 | 80 | 1021.9 |
| 20260502115545 | 36 | 0 | 0.0 | 1.0 | 0.00 | 0.00 | 0.00 | 81 | 1021.8 |
| 20260502115045 | 36 | 0 | 0.0 | 0.0 | 0.00 | 0.00 | 0.00 | 81 | 1021.8 |
| 20260502114555 | 36 | 0 | 0.0 | 0.0 | 0.00 | 0.00 | 0.00 | 81 | 1021.6 |
| 20260502114043 | 36 | 0 | 0.0 | 0.0 | 0.00 | 0.00 | 0.00 | 81 | 1021.6 |
| 20260502113547 | 36 | 0 | 0.0 | 0.0 | 0.00 | 0.00 | 0.00 | 81 | 1021.6 |
| 20260502113056 | 36 | 0 | 0.0 | 0.0 | 0.00 | 0.00 | 0.00 | 81 | 1021.5 |
| 20260502112542 | 36 | 0 | 0.0 | 0.0 | 0.00 | 0.00 | 0.00 | 80 | 1021.5 |
| 20260502112042 | 36 | 0 | 0.0 | 0.0 | 0.00 | 0.00 | 0.00 | 80 | 1021.5 |
| 20260502111549 | 37 | 0 | 0.0 | 0.0 | 0.00 | 0.00 | 0.00 | 80 | 1021.5 |
| 20260502111043 | 36 | 0 | 0.0 | 0.0 | 0.00 | 0.00 | 0.00 | 79 | 1021.5 |
| 20260502110541 | 37 | 0 | 0.0 | 0.0 | 0.00 | 0.00 | 0.00 | 79 | 1021.4 |
| 20260502110051 | 37 | 0 | 0.0 | 0.0 | 0.00 | 0.00 | 0.00 | 79 | 1021.4 |
| 20260502105545 | 37 | 0 | 0.0 | 0.0 | 0.00 | 0.00 | 0.00 | 79 | 1021.4 |
| 20260502105040 | 37 | 0 | 0.0 | 0.0 | 0.00 | 0.00 | 0.00 | 79 | 1021.5 |
| 20260502104552 | 37 | 0 | 0.0 | 0.0 | 0.00 | 0.00 | 0.00 | 78 | 1021.3 |
| 20260502104043 | 37 | 0 | 0.0 | 0.0 | 0.00 | 0.00 | 0.00 | 78 | 1021.3 |
| 20260502103544 | 37 | 0 | 0.0 | 0.0 | 0.00 | 0.00 | 0.00 | 77 | 1021.3 |
| 20260502103048 | 37 | 0 | 0.0 | 0.0 | 0.00 | 0.00 | 0.00 | 77 | 1021.4 |
| 20260502102544 | 38 | 0 | 0.0 | 0.0 | 0.00 | 0.00 | 0.00 | 77 | 1021.3 |
| 20260502102043 | 38 | 0 | 0.0 | 0.0 | 0.00 | 0.00 | 0.00 | 77 | 1021.2 |
| 20260502101551 | 38 | 0 | 0.0 | 0.0 | 0.00 | 0.00 | 0.00 | 76 | 1021.2 |
| 20260502101043 | 38 | 0 | 0.0 | 0.0 | 0.00 | 0.00 | 0.00 | 75 | 1021.1 |
| 20260502100543 | 38 | 0 | 0.0 | 0.0 | 0.00 | 0.00 | 0.00 | 75 | 1021.1 |
| 20260502091040 | 40 | 0 | 0.0 | 0.0 | 0.00 | 0.00 | 0.00 | 70 | 1021.1 |
| 20260502090543 | 40 | 0 | 0.0 | 0.0 | 0.00 | 0.00 | 0.00 | 69 | 1020.9 |
| 20260502071040 | 44 | 0 | 0.0 | 0.0 | 0.00 | 0.00 | 0.00 | 59 | 1020.7 |
| 20260502070543 | 43 | 0 | 0.0 | 0.0 | 0.00 | 0.00 | 0.00 | 60 | 1020.8 |
| 20260502070056 | 43 | 0 | 0.0 | 0.0 | 0.00 | 0.00 | 0.00 | 60 | 1020.7 |
| 20260502065540 | 44 | 0 | 0.0 | 0.0 | 0.00 | 0.00 | 0.00 | 60 | 1020.7 |
| 20260502065040 | 44 | 0 | 0.0 | 0.0 | 0.00 | 0.00 | 0.00 | 59 | 1020.8 |
| 20260502064551 | 44 | 0 | 0.0 | 0.0 | 0.00 | 0.00 | 0.00 | 58 | 1020.8 |
| 20260502064043 | 44 | 0 | 0.0 | 0.0 | 0.00 | 0.00 | 0.00 | 58 | 1021.0 |
| 20260502063543 | 45 | 0 | 0.0 | 0.0 | 0.00 | 0.00 | 0.00 | 58 | 1020.8 |
| 20260502063048 | 45 | 0 | 0.0 | 0.0 | 0.00 | 0.00 | 0.00 | 57 | 1020.8 |
| 20260502062539 | 44 | 0 | 0.0 | 0.0 | 0.00 | 0.00 | 0.00 | 58 | 1020.8 |
| 20260502062039 | 44 | 0 | 0.0 | 0.0 | 0.00 | 0.00 | 0.00 | 58 | 1020.7 |
| 20260502061550 | 44 | 0 | 0.0 | 0.0 | 0.00 | 0.00 | 0.00 | 59 | 1020.7 |
| 20260502061042 | 44 | 0 | 0.0 | 0.0 | 0.00 | 0.00 | 0.00 | 59 | 1020.7 |
| 20260502060543 | 45 | 0 | 0.0 | 0.0 | 0.00 | 0.00 | 0.00 | 58 | 1020.7 |
| 20260502060100 | 45 | 0 | 0.0 | 0.0 | 0.00 | 0.00 | 0.00 | 57 | 1020.6 |
| 20260502055544 | 45 | 0 | 0.0 | 0.0 | 0.00 | 0.00 | 0.00 | 56 | 1020.8 |
| 20260502055043 | 46 | 0 | 0.0 | 0.0 | 0.00 | 0.00 | 0.00 | 54 | 1020.7 |
| 20260502054553 | 47 | 0 | 0.0 | 0.0 | 0.00 | 0.00 | 0.00 | 53 | 1020.6 |
| 20260502054042 | 47 | 0 | 0.0 | 0.0 | 0.00 | 0.00 | 0.00 | 51 | 1020.6 |
| 20260502053540 | 48 | 0 | 0.0 | 0.0 | 0.00 | 0.00 | 0.00 | 50 | 1020.4 |
| 20260502053050 | 48 | 0 | 0.0 | 2.0 | 0.00 | 0.00 | 0.00 | 49 | 1020.6 |
| 20260502052543 | 49 | 0 | 0.0 | 2.0 | 0.00 | 0.00 | 0.00 | 48 | 1020.6 |
| 20260502052043 | 49 | 0 | 0.0 | 5.0 | 0.00 | 0.00 | 0.00 | 48 | 1020.6 |
| 20260502051551 | 50 | 0 | 0.0 | 5.0 | 0.00 | 0.00 | 0.00 | 47 | 1020.6 |
| 20260502051043 | 50 | 0 | 0.0 | 3.0 | 0.00 | 0.00 | 0.00 | 46 | 1020.5 |
| 20260502050540 | 50 | 0 | 0.0 | 3.0 | 0.00 | 0.00 | 0.00 | 46 | 1020.5 |
| 20260502050051 | 50 | 0 | 0.0 | 3.0 | 0.00 | 0.00 | 0.00 | 47 | 1020.5 |
| 20260502045542 | 49 | 0 | 0.0 | 2.0 | 0.00 | 0.00 | 0.00 | 49 | 1020.4 |
| 20260502045044 | 49 | 0 | 0.0 | 0.0 | 0.00 | 0.00 | 0.00 | 48 | 1020.4 |
| 20260502044553 | 49 | 0 | 0.0 | 2.0 | 0.00 | 0.00 | 0.00 | 48 | 1020.3 |
| 20260502044039 | 50 | 0 | 0.0 | 2.0 | 0.00 | 0.00 | 0.00 | 48 | 1020.3 |
| 20260502043542 | 49 | 0 | 0.0 | 2.0 | 0.00 | 0.00 | 0.00 | 48 | 1020.3 |
| 20260502043055 | 50 | 0 | 0.0 | 1.0 | 0.00 | 0.00 | 0.00 | 49 | 1020.3 |
| 20260502042544 | 50 | 0 | 0.0 | 0.0 | 0.00 | 0.00 | 0.00 | 48 | 1020.3 |
| 20260502042041 | 50 | 0 | 0.0 | 2.0 | 0.00 | 0.00 | 0.00 | 48 | 1020.2 |
| 20260502041553 | 51 | 0 | 0.0 | 2.0 | 0.00 | 0.00 | 0.00 | 47 | 1020.2 |
| 20260502041040 | 51 | 0 | 0.0 | 3.0 | 0.00 | 0.00 | 0.00 | 48 | 1020.2 |
| 20260502040540 | 51 | 0 | 0.0 | 3.0 | 0.00 | 0.00 | 0.00 | 47 | 1020.3 |
| 20260502040054 | 51 | 0 | 0.0 | 3.0 | 0.00 | 0.00 | 0.00 | 47 | 1020.2 |
| 20260502035542 | 51 | 0 | 0.0 | 2.0 | 0.00 | 0.00 | 0.00 | 47 | 1020.2 |
| 20260502035040 | 52 | 0 | 0.0 | 2.0 | 0.00 | 0.00 | 0.00 | 47 | 1020.2 |
| 20260502034548 | 52 | 0 | 0.0 | 4.0 | 0.00 | 0.00 | 0.00 | 47 | 1020.3 |
| 20260502034043 | 52 | 0 | 0.0 | 4.0 | 0.00 | 0.00 | 0.00 | 48 | 1020.1 |
| 20260502033542 | 52 | 0 | 0.0 | 4.0 | 0.00 | 0.00 | 0.00 | 47 | 1020.1 |
| 20260502033052 | 53 | 0 | 0.0 | 2.0 | 0.00 | 0.00 | 0.00 | 47 | 1020.1 |
| 20260502032545 | 53 | 0 | 0.0 | 2.0 | 0.00 | 0.00 | 0.00 | 48 | 1020.1 |
| 20260502032043 | 53 | 0 | 0.0 | 1.0 | 0.00 | 0.00 | 0.00 | 48 | 1019.9 |
| 20260502031550 | 53 | 0 | 0.0 | 4.0 | 0.00 | 0.00 | 0.00 | 48 | 1019.9 |
| 20260502031043 | 53 | 0 | 0.0 | 4.0 | 0.00 | 0.00 | 0.00 | 47 | 1019.7 |
| 20260502030541 | 54 | 0 | 0.0 | 2.0 | 0.00 | 0.00 | 0.00 | 48 | 1019.7 |
| 20260502030054 | 53 | 0 | 0.0 | 2.0 | 0.00 | 0.00 | 0.00 | 49 | 1019.7 |
| 20260502025540 | 53 | 63 | 0.0 | 2.0 | 0.00 | 0.00 | 0.00 | 51 | 1019.6 |
| 20260502025040 | 53 | 0 | 0.0 | 2.0 | 0.00 | 0.00 | 0.00 | 53 | 1019.5 |
| 20260502024549 | 53 | 0 | 0.0 | 2.0 | 0.00 | 0.00 | 0.00 | 54 | 1019.4 |
| 20260502024040 | 54 | 0 | 0.0 | 0.0 | 0.00 | 0.00 | 0.00 | 53 | 1019.3 |
| 20260502023543 | 54 | 0 | 0.0 | 1.0 | 0.00 | 0.00 | 0.00 | 53 | 1019.2 |
| 20260502023048 | 54 | 0 | 0.0 | 1.0 | 0.00 | 0.00 | 0.00 | 52 | 1019.1 |
| 20260502022540 | 54 | 0 | 0.0 | 1.0 | 0.00 | 0.00 | 0.00 | 52 | 1018.9 |
| 20260502022041 | 54 | 0 | 0.0 | 1.0 | 0.00 | 0.00 | 0.00 | 52 | 1018.8 |
| 20260502021550 | 54 | 0 | 0.0 | 1.0 | 0.00 | 0.00 | 0.00 | 51 | 1018.7 |
| 20260502021047 | 55 | 0 | 0.0 | 0.0 | 0.00 | 0.00 | 0.00 | 51 | 1018.6 |
| 20260502020540 | 55 | 0 | 0.0 | 0.0 | 0.00 | 0.00 | 0.00 | 51 | 1018.5 |
| 20260502020048 | 54 | 0 | 0.0 | 0.0 | 0.00 | 0.00 | 0.00 | 51 | 1018.4 |
| 20260502015543 | 54 | 0 | 0.0 | 0.0 | 0.00 | 0.00 | 0.00 | 51 | 1018.3 |
| 20260502015043 | 55 | 0 | 0.0 | 0.0 | 0.00 | 0.00 | 0.00 | 50 | 1018.2 |
| 20260502014556 | 55 | 0 | 0.0 | 0.0 | 0.00 | 0.00 | 0.00 | 49 | 1018.2 |
| 20260502014040 | 56 | 0 | 0.0 | 1.0 | 0.00 | 0.00 | 0.00 | 48 | 1018.1 |
| 20260502013540 | 56 | 0 | 0.0 | 1.0 | 0.00 | 0.00 | 0.00 | 46 | 1018.1 |
| 20260502013054 | 57 | 0 | 0.0 | 0.0 | 0.00 | 0.00 | 0.00 | 46 | 1018.0 |
| 20260502012540 | 57 | 0 | 0.0 | 1.0 | 0.00 | 0.00 | 0.00 | 44 | 1018.0 |
| 20260502012040 | 58 | 0 | 0.0 | 1.0 | 0.00 | 0.00 | 0.00 | 44 | 1018.1 |
| 20260502011549 | 58 | 0 | 0.0 | 1.0 | 0.00 | 0.00 | 0.00 | 43 | 1018.0 |
| 20260502011039 | 58 | 0 | 0.0 | 2.0 | 0.00 | 0.00 | 0.00 | 42 | 1017.9 |
| 20260502010541 | 59 | 0 | 0.0 | 2.0 | 0.00 | 0.00 | 0.00 | 41 | 1017.9 |
| 20260502010058 | 59 | 355 | 0.0 | 3.0 | 0.00 | 0.00 | 0.00 | 41 | 1017.9 |
| 20260502005541 | 60 | 0 | 0.0 | 3.0 | 0.00 | 0.00 | 0.00 | 41 | 1017.8 |
| 20260502005043 | 60 | 281 | 0.0 | 3.0 | 0.00 | 0.00 | 0.00 | 40 | 1017.8 |
| 20260502004551 | 60 | 0 | 0.0 | 2.0 | 0.00 | 0.00 | 0.00 | 40 | 1017.7 |
| 20260502004046 | 61 | 0 | 0.0 | 4.0 | 0.00 | 0.00 | 0.00 | 38 | 1017.6 |
| 20260502003543 | 61 | 0 | 0.0 | 4.0 | 0.00 | 0.00 | 0.00 | 38 | 1017.5 |
| 20260502003049 | 61 | 338 | 0.0 | 5.0 | 0.00 | 0.00 | 0.00 | 37 | 1017.5 |
| 20260502002544 | 62 | 5 | 1.0 | 8.0 | 0.00 | 0.00 | 0.00 | 37 | 1017.5 |
| 20260502002044 | 62 | 350 | 1.0 | 8.0 | 0.00 | 0.00 | 0.00 | 36 | 1017.5 |
| 20260502001549 | 62 | 5 | 1.0 | 10.0 | 0.00 | 0.00 | 0.00 | 35 | 1017.3 |
| 20260502001045 | 62 | 349 | 2.0 | 10.0 | 0.00 | 0.00 | 0.00 | 34 | 1017.3 |
| 20260502000544 | 62 | 348 | 0.0 | 7.0 | 0.00 | 0.00 | 0.00 | 33 | 1017.3 |
| 20260502000105 | 63 | 349 | 1.0 | 7.0 | 0.00 | 0.00 | 0.00 | 35 | 1017.2 |
| 20260501235544 | 63 | 294 | 1.0 | 7.0 | 0.00 | 0.00 | 0.00 | 34 | 1017.2 |
| 20260501235044 | 63 | 263 | 1.0 | 9.0 | 0.00 | 0.00 | 0.00 | 35 | 1017.2 |
| 20260501234551 | 63 | 306 | 2.0 | 11.0 | 0.00 | 0.00 | 0.00 | 34 | 1017.1 |
| 20260501234044 | 63 | 5 | 2.0 | 11.0 | 0.00 | 0.00 | 0.00 | 33 | 1017.1 |
| 20260501233549 | 63 | 306 | 2.0 | 11.0 | 0.00 | 0.00 | 0.00 | 34 | 1017.2 |
| 20260501233053 | 63 | 300 | 1.0 | 5.0 | 0.00 | 0.00 | 0.00 | 34 | 1017.1 |
| 20260501232546 | 63 | 348 | 0.0 | 13.0 | 0.00 | 0.00 | 0.00 | 34 | 1017.1 |
| 20260501232048 | 63 | 352 | 1.0 | 13.0 | 0.00 | 0.00 | 0.00 | 34 | 1017.1 |
| 20260501231552 | 63 | 0 | 2.0 | 11.0 | 0.00 | 0.00 | 0.00 | 34 | 1017.1 |
| 20260501231044 | 63 | 317 | 1.0 | 7.0 | 0.00 | 0.00 | 0.00 | 34 | 1017.1 |
| 20260501230545 | 64 | 355 | 1.0 | 4.0 | 0.00 | 0.00 | 0.00 | 33 | 1017.1 |
| 20260501230052 | 64 | 326 | 0.0 | 8.0 | 0.00 | 0.00 | 0.00 | 33 | 1017.0 |
| 20260501225547 | 64 | 0 | 1.0 | 8.0 | 0.00 | 0.00 | 0.00 | 32 | 1017.0 |
| 20260501225045 | 65 | 0 | 2.0 | 8.0 | 0.00 | 0.00 | 0.00 | 31 | 1016.9 |
| 20260501224553 | 66 | 327 | 0.0 | 9.0 | 0.00 | 0.00 | 0.00 | 34 | 1017.1 |
| 20260501224045 | 65 | 234 | 2.0 | 9.0 | 0.00 | 0.00 | 0.00 | 33 | 1017.1 |
| 20260501223545 | 64 | 293 | 1.0 | 9.0 | 0.00 | 0.00 | 0.00 | 33 | 1017.1 |
| 20260501223050 | 64 | 352 | 2.0 | 9.0 | 0.00 | 0.00 | 0.00 | 33 | 1017.1 |
| 20260501222544 | 65 | 0 | 1.0 | 8.0 | 0.00 | 0.00 | 0.00 | 34 | 1017.1 |
| 20260501222044 | 65 | 348 | 1.0 | 8.0 | 0.00 | 0.00 | 0.00 | 35 | 1017.2 |
| 20260501221551 | 64 | 17 | 0.0 | 6.0 | 0.00 | 0.00 | 0.00 | 39 | 1017.2 |
| 20260501221044 | 64 | 5 | 0.0 | 8.0 | 0.00 | 0.00 | 0.00 | 36 | 1017.2 |
| 20260501220546 | 65 | 329 | 0.0 | 11.0 | 0.00 | 0.00 | 0.00 | 34 | 1017.2 |
| 20260501220100 | 65 | 336 | 1.0 | 11.0 | 0.00 | 0.00 | 0.00 | 35 | 1017.2 |
| 20260501215545 | 66 | 0 | 1.0 | 11.0 | 0.00 | 0.00 | 0.00 | 35 | 1017.1 |
| 20260501215044 | 67 | 0 | 1.0 | 11.0 | 0.00 | 0.00 | 0.00 | 35 | 1017.1 |
| 20260501214554 | 66 | 44 | 0.0 | 11.0 | 0.00 | 0.00 | 0.00 | 34 | 1017.1 |
| 20260501214045 | 67 | 24 | 1.0 | 10.0 | 0.00 | 0.00 | 0.00 | 33 | 1017.2 |
| 20260501213544 | 67 | 257 | 2.0 | 10.0 | 0.00 | 0.00 | 0.00 | 34 | 1017.3 |
| 20260501213057 | 67 | 321 | 3.0 | 9.0 | 0.00 | 0.00 | 0.00 | 34 | 1017.4 |
| 20260501212544 | 67 | 321 | 1.0 | 8.0 | 0.00 | 0.00 | 0.00 | 37 | 1017.5 |
| 20260501212044 | 66 | 340 | 1.0 | 8.0 | 0.00 | 0.00 | 0.00 | 36 | 1017.5 |
| 20260501211551 | 65 | 49 | 1.0 | 10.0 | 0.00 | 0.00 | 0.00 | 37 | 1017.6 |
| 20260501211044 | 64 | 327 | 1.0 | 10.0 | 0.00 | 0.00 | 0.00 | 37 | 1017.8 |
| 20260501210544 | 64 | 269 | 4.0 | 10.0 | 0.00 | 0.00 | 0.00 | 37 | 1017.9 |
| 20260501210054 | 65 | 282 | 1.0 | 11.0 | 0.00 | 0.00 | 0.00 | 38 | 1018.0 |
| 20260501205544 | 65 | 352 | 3.0 | 11.0 | 0.00 | 0.00 | 0.00 | 36 | 1018.0 |
| 20260501205044 | 65 | 9 | 4.0 | 11.0 | 0.00 | 0.00 | 0.00 | 35 | 1018.1 |
| 20260501204553 | 65 | 0 | 1.0 | 11.0 | 0.00 | 0.00 | 0.00 | 39 | 1018.1 |
| 20260501204046 | 65 | 355 | 1.0 | 11.0 | 0.00 | 0.00 | 0.00 | 36 | 1018.1 |
| 20260501203543 | 67 | 318 | 1.0 | 7.0 | 0.00 | 0.00 | 0.00 | 33 | 1018.2 |